This is the latest recevied weather packets stored in our database for station/object HS2LXA-13. If no packets are shown the sender has not sent any weather packets the latest 10 day(s).
| Time | Temp. | Humidity | Pressure | Rain* | Wind** | Luminosity | Snow |
|---|---|---|---|---|---|---|---|
| 1778116799 | 33.33° C | 81% | 1010.1 hPa | 0 mm | - | 0 W/m² | - |
| 1778116191 | 33.89° C | 80% | 1010.1 hPa | 0 mm | - | 0 W/m² | - |
| 1778115590 | 35.56° C | 83% | 1010 hPa | 0 mm | - | 0 W/m² | - |
| 1778114989 | 38.33° C | 84% | 1009.7 hPa | 0 mm | - | 0 W/m² | - |
| 1778114388 | 36.67° C | 84% | 1009.5 hPa | 0 mm | - | 0 W/m² | - |
| 1778113786 | 35° C | 85% | 1009.7 hPa | 0 mm | - | 0 W/m² | - |
| 1778113186 | 33.89° C | 86% | 1009.4 hPa | 0 mm | - | 0 W/m² | - |
| 1778112582 | 32.22° C | 86% | 1009.4 hPa | 0 mm | - | 0 W/m² | - |
| 1778111981 | 30.56° C | 87% | 1009.4 hPa | 0 mm | - | 0 W/m² | - |
| 1778111379 | 30° C | 88% | 1009.3 hPa | 0 mm | - | 0 W/m² | - |
| 1778110773 | 28.33° C | 88% | 1009.2 hPa | 0 mm | - | 0 W/m² | - |
| 1778110172 | 28.33° C | 88% | 1009.1 hPa | 0 mm | - | 0 W/m² | - |
| 1778109571 | 28.33° C | 87% | 1009.1 hPa | 0 mm | - | 0 W/m² | - |
| 1778108976 | 27.78° C | 87% | 1008.8 hPa | 0 mm | - | 0 W/m² | - |
| 1778108367 | 27.78° C | 86% | 1009 hPa | 0 mm | - | 0 W/m² | - |
| 1778107767 | 27.78° C | 86% | 1008.7 hPa | 0 mm | - | 0 W/m² | - |
| 1778107162 | 28.33° C | 86% | 1008.5 hPa | 0 mm | - | 0 W/m² | - |
| 1778106561 | 28.33° C | 86% | 1008.5 hPa | 0 mm | - | 0 W/m² | - |
| 1778105960 | 28.33° C | 85% | 1008.5 hPa | 0 mm | - | 0 W/m² | - |
| 1778105358 | 27.78° C | 86% | 1008.5 hPa | 0 mm | - | 0 W/m² | - |
| 1778104756 | 28.33° C | 87% | 1008.4 hPa | 0 mm | - | 0 W/m² | - |
| 1778104154 | 28.33° C | 86% | 1008.4 hPa | 0 mm | - | 0 W/m² | - |
| 1778103549 | 28.89° C | 85% | 1008.3 hPa | 0 mm | - | 0 W/m² | - |
| 1778102948 | 28.33° C | 86% | 1008.2 hPa | 0 mm | - | 0 W/m² | - |
| 1778102346 | 28.89° C | 85% | 1008.1 hPa | 0 mm | - | 0 W/m² | - |
* Rain latest hour (hover to see other rain measurements)
** Current wind speed in m/s (hover to see current wind gust speed)